Chino, CA

3:56 AM PST on November 22, 2017 (GMT -0800)
Chino

Weather History for KCNO - February, 2013

Change the Weather History Date:

Thursday, February 28, 2013

  Actual Average Record
Temperature  
Mean Temperature 58 °F -  
Max Temperature 79 °F 63 °F 84 °F (2009)
Min Temperature 36 °F 41 °F 34 °F (2011)
Degree Days  
Heating Degree Days 8    
Growing Degree Days 8 (Base 50)    
Moisture  
Dew Point 22 °F    
Average Humidity 30    
Maximum Humidity 70    
Minimum Humidity 9    
Precipitation  
Precipitation 0.00 in - - ()
Sea Level Pressure  
Sea Level Pressure 30.29 in    
Wind  
Wind Speed 3 mph (North)    
Max Wind Speed 12 mph    
Max Gust Speed 21 mph    
Visibility 10 miles    
Events      
Averages and records for this station are not official NWS values.
T = Trace of Precipitation, MM = Missing Value Source: NWS Daily Summary

Daily Weather History Graph

Daily Weather History Graph

Search for Another Location

Airport or City:

Trip Planner

Search our weather history database for the weather conditions in past years. The results will help you decide how hot, cold, wet, or windy it might be!

Date:

Astronomy

Feb. 28, 2013 Rise Set
Actual Time 6:20 AM PST 5:46 PM PST
Civil Twilight 5:54 AM PST 6:11 PM PST
Nautical Twilight 5:25 AM PST 6:40 PM PST
Astronomical Twilight 4:57 AM PST 7:09 PM PST
Moon 9:05 PM PST (2/28) 7:43 AM PST (2/28)
Length of Visible Light 12h 16m
Length of Day
11h 26m
Waning Gibbous, 90% of the Moon is Illuminated
Feb 28
Waning Gibbous
Mar 4
Last Quarter
Mar 11
New
Mar 19
First Quarter
Mar 27
Full

Hourly Weather History & Observations

Time (PST) Temp. Windchill Dew Point Humidity Pressure Visibility Wind Dir Wind Speed Gust Speed Precip Events Conditions
1:53 AM 37.0 °F 34.5 °F 28.0 °F 70% 30.29 in 10.0 mi NNE 3.5 mph - N/A   Clear
2:53 AM 41.0 °F 38.0 °F 21.0 °F 45% 30.27 in 10.0 mi NE 4.6 mph - N/A   Clear
3:53 AM 36.0 °F 32.1 °F 26.1 °F 67% 30.28 in 10.0 mi NW 4.6 mph - N/A   Clear
4:53 AM 43.0 °F 41.3 °F 24.1 °F 47% 30.28 in 10.0 mi NNE 3.5 mph - N/A   Clear
6:53 AM 37.9 °F - 25.0 °F 60% 30.31 in 8.0 mi Calm Calm - N/A   Clear
7:53 AM 50.0 °F - 30.9 °F 48% 30.32 in 10.0 mi Calm Calm - N/A   Clear
8:53 AM 60.1 °F - 24.1 °F 25% 30.33 in 10.0 mi Variable 3.5 mph - N/A   Clear
9:53 AM 68.0 °F - 19.9 °F 16% 30.33 in 10.0 mi Variable 3.5 mph - N/A   Clear
10:53 AM 73.9 °F - 10.9 °F 9% 30.31 in 10.0 mi Calm Calm - N/A   Clear
11:53 AM 75.9 °F - 16.0 °F 10% 30.29 in 10.0 mi Calm Calm - N/A   Clear
12:53 PM 77.0 °F - 14.0 °F 9% 30.27 in 10.0 mi Calm Calm - N/A   Clear
1:53 PM 79.0 °F - 16.0 °F 9% 30.25 in 10.0 mi NNW 3.5 mph - N/A   Clear
2:15 PM 78.8 °F - 14.0 °F 9% 30.24 in 10.0 mi East 11.5 mph 19.6 mph N/A   Clear
2:53 PM 79.0 °F - 14.0 °F 9% 30.23 in 10.0 mi East 10.4 mph 20.7 mph N/A   Clear
3:53 PM 79.0 °F - 18.0 °F 10% 30.23 in 10.0 mi Variable 3.5 mph - N/A   Clear
4:53 PM 72.0 °F - 28.0 °F 20% 30.24 in 10.0 mi NW 9.2 mph - N/A   Clear
5:53 PM 64.9 °F - 26.1 °F 23% 30.26 in 10.0 mi SW 5.8 mph - N/A   Partly Cloudy
6:53 PM 60.1 °F - 24.1 °F 25% 30.30 in 10.0 mi Calm Calm - N/A   Clear
7:53 PM 59.0 °F - 21.9 °F 24% 30.31 in 10.0 mi West 3.5 mph - N/A   Clear
8:53 PM 52.0 °F - 25.0 °F 35% 30.32 in 10.0 mi Calm Calm - N/A   Clear
9:53 PM 48.9 °F - 28.9 °F 46% 30.32 in 10.0 mi NE 4.6 mph - N/A   Clear
10:53 PM 46.9 °F - 30.0 °F 52% 30.32 in 10.0 mi Calm Calm - N/A   Clear